Tracking 20715 objects as of 27-May-2020
HD Live streaming from Space Station
objects crossing your sky now

IRIDIUM 33 DEB

Track IRIDIUM 33 DEB now!
10-day predictions


NORAD ID: 34106
Int'l Code: 1997-051DR
Perigee: 714.3 km
Apogee: 737.1 km
Inclination: 86.4 °
Period: 99.2 minutes
Semi major axis: 7096 km
RCS: 0.065 m2 (small)
Launch date: September 14, 1997
Source: United States (US)
Launch site: TYURATAM MISSILE AND SPACE COMPLEX (TTMTR)

Note: This is SATELLITE DEBRIS
aabbcc
Your satellite tracking list
Your tracking list is empty




NASA's NSSDC Master Catalog

Two Line Element Set (TLE):
1 34106U 97051DR  20147.82347434  .00000819  00000-0  19658-3 0  9995
2 34106  86.3631 155.0153 0016091 335.1794 143.2616 14.52174444594784
Source of the keplerian elements: AFSPC